[Date Prev][Date Next][Thread Prev][Thread Next] - [Date Index][Thread Index][Author Index]
2 Line ISS Keps 7-26
- Subject: [sarex] 2 Line ISS Keps 7-26
- From: "Dave Larsen PhD" <doc@xxxxxxxxxxx>
- Date: Fri, 26 Jul 2002 06:10:59 -0700
ISS
1 25544U 98067A 02207.12875418 .00018239 00000-0 23199-3 0 6983
2 25544 51.6345 217.4425 0008918 37.8242 72.9874 15.59391330210103
----
Via the sarex mailing list at AMSAT.ORG courtesy of AMSAT-NA.
To unsubscribe, send "unsubscribe sarex" to Majordomo@amsat.org
AMSAT Home